Home > Weather > Samarkand > Past weeks

Flag for Uzbekistan Weather for the Past 2 Weeks in Samarkand, Uzbekistan

Now
45 °F

Clear.


Feels Like: 41 °F
Forecast: 33 / 44 °F
Wind: 7 mph from East

Location: Samarkand

Current Time: Feb 9, 2016 at 1:03:50 AM

Latest Report: Feb 9, 2016 at 12:00 AM


Visibility: 4 mi

Pressure: 30.07 "Hg (27.54 "Hg at 721m altitude)

Humidity: 71%

Dew point: 36 °F

Location of SamarkandLocation

Historic Weather in Samarkand — Graph

°F

Samarkand Temperature Yesterday

Maximum temperature yesterday: 61 °F (at 1:00 PM)
Minimum temperature yesterday: 41 °F (at 2:00 AM)
Average temperature yesterday: 51 °F

High & Low Weather Summary for the Past Weeks

 TemperatureHumidityPressure
High72 °F (Feb 7, 2:00 PM)100% (Jan 27, 8:00 AM)30.45 "Hg (Jan 27, 8:00 AM)
Low23 °F (Jan 29, 7:30 PM)11% (Feb 7, 2:00 PM)29.80 "Hg (Jan 25, 8:30 PM)
Average39 °F69%30.17 "Hg
* Reported Jan 24 11:30 PM — Feb 8 11:30 PM, Samarkand, Weather by CustomWeather, © 2016

Note: Actual official high and low records may vary slightly from our data, if they occured in-between our weather recording intervals... More about our weather records

Advertising

Samarkand Weather History for the Previous 24 Hours

 ConditionsComfort  
Time TempWeatherWind HumidityBarometerVisibility
11:30 PM
Mon, Feb 8
48 °FClear.2 mph62%30.04 "Hg4 mi
11:00 PM46 °FClear.5 mph71%30.04 "Hg4 mi
10:30 PM45 °FClear.5 mph76%30.04 "Hg4 mi
10:00 PM48 °FClear.1 mph66%30.04 "Hg4 mi
9:30 PM50 °FClear.1 mph58%30.04 "Hg4 mi
9:00 PM52 °FClear.3 mph54%30.04 "Hg4 mi
8:30 PM50 °FPassing clouds.2 mph67%30.01 "Hg4 mi
8:00 PM52 °FPassing clouds.5 mph58%30.01 "Hg4 mi
7:30 PM54 °FPassing clouds.3 mph58%30.01 "Hg4 mi
7:00 PM54 °FPassing clouds.No wind63%30.01 "Hg4 mi
6:30 PM54 °FPassing clouds.6 mph63%30.01 "Hg4 mi
6:00 PM55 °FPassing clouds.8 mph55%30.01 "HgN/A
5:30 PM59 °FScattered clouds.2 mph36%29.98 "HgN/A
5:00 PM59 °FPassing clouds.3 mph34%29.98 "HgN/A
4:30 PM61 °FClear.No wind34%29.98 "HgN/A
4:00 PM61 °FClear.1 mph36%29.98 "HgN/A
3:30 PM61 °FClear.3 mph34%29.98 "HgN/A
3:00 PM61 °FClear.3 mph29%29.98 "HgN/A
2:30 PM61 °FClear.3 mph27%29.98 "HgN/A
2:00 PM61 °FClear.2 mph27%29.98 "HgN/A
1:30 PM59 °FClear.2 mph29%29.98 "HgN/A
1:00 PM61 °FClear.No wind29%30.01 "HgN/A
12:30 PM59 °FClear.5 mph29%30.01 "HgN/A
12:00 PM59 °FClear.5 mph29%30.01 "HgN/A
11:30 AM57 °FClear.6 mph36%30.01 "HgN/A
11:00 AM54 °FClear.7 mph38%30.04 "HgN/A
10:30 AM54 °FPassing clouds.6 mph38%30.04 "HgN/A
10:00 AM52 °FPassing clouds.6 mph41%30.04 "HgN/A
9:30 AM52 °FPassing clouds.6 mph41%30.04 "HgN/A
9:00 AM48 °FPassing clouds.6 mph50%30.04 "HgN/A
8:00 AM48 °FClear.7 mph46%30.01 "HgN/A
7:30 AM46 °FClear.2 mph50%30.01 "Hg4 mi
6:30 AM45 °FClear.5 mph53%30.01 "Hg4 mi
6:00 AM46 °FClear.8 mph50%30.01 "Hg4 mi
5:30 AM46 °FClear.7 mph50%30.01 "Hg4 mi
5:00 AM43 °FClear.1 mph57%30.01 "Hg4 mi
4:30 AM43 °FClear.2 mph61%30.01 "Hg4 mi
4:00 AM41 °FClear.6 mph66%29.98 "Hg4 mi
3:30 AM41 °FClear.2 mph61%29.98 "Hg4 mi
3:00 AM45 °FClear.5 mph53%29.98 "Hg4 mi
2:30 AM45 °FClear.1 mph53%30.01 "Hg4 mi
2:00 AM41 °FClear.No wind61%30.01 "Hg4 mi
1:30 AM45 °FClear.No wind53%29.98 "Hg4 mi
1:00 AM43 °FClear.2 mph57%29.98 "Hg4 mi
Weather by CustomWeather, © 2016

See weather overviewHow to use our weather pages